This demonstration page uses our WeatherBlox Daily Observations layout. Learn more.

Left ArrowRight Arrow

39.51506, -84.39828

Hourly Observations for April 14, 2018

Temp ( °F °C ) Dew Point ( °F °C ) Humidity (%) Winds ( mph kmh ) Pressure ( in mb ) Visibility ( mi km ) Precip ( " mm )
12:15 am 00:15 Cloudy 70 21.1 49 9.2 47 47 S 7 11 29.83 1010 10 16 0.00 0.00
12:35 am 00:35 Clear 69 20.5 48 8.7 47 47 S 7 11 29.83 1010 10 16 0.00 0.00
12:55 am 00:55 Clear 67 19.5 48 8.9 51 51 S 9 15 29.83 1010 10 16 0.00 0.00
1:15 am 01:15 Clear 67 19.2 48 8.8 51 51 S 7 11 29.83 1010 10 16 0.00 0.00
1:35 am 01:35 Clear 67 19.3 47 8.4 49 49 S 10 17 29.83 1010 10 16 0.00 0.00
1:55 am 01:55 Clear 67 19.7 46 7.9 47 47 S 8 13 29.83 1010 10 16 0.00 0.00
2:15 am 02:15 Clear 66 19 46 7.8 48 48 S 8 13 29.83 1010 10 16 0.00 0.00
2:35 am 02:35 Clear 66 18.8 46 7.7 49 49 S 8 13 29.80 1009 10 16 0.00 0.00
2:55 am 02:55 Clear 67 19.6 45 7.3 45 45 S 10 17 29.80 1009 10 16 0.00 0.00
3:15 am 03:15 Clear 67 19.4 45 7.4 46 46 S 9 15 29.80 1009 10 16 0.00 0.00
3:35 am 03:35 Clear 67 19.6 45 7.4 45 45 SSW 9 15 29.80 1009 10 16 0.00 0.00
3:55 am 03:55 Clear 67 19.2 45 7.4 47 47 SSW 10 17 29.80 1009 10 16 0.00 0.00
4:15 am 04:15 Clear 68 19.8 45 7.4 45 45 S 14 22 29.77 1008 10 16 0.00 0.00
4:35 am 04:35 Clear 68 19.9 45 7.2 44 44 S 12 19 29.77 1008 10 16 0.00 0.00
4:55 am 04:55 Clear 68 19.8 46 7.5 45 45 S 13 20 29.77 1008 10 16 0.00 0.00
5:15 am 05:15 Clear 67 19.5 46 7.6 46 46 S 14 22 29.77 1008 10 16 0.00 0.00
5:35 am 05:35 Clear 67 19.2 46 7.7 47 47 S 12 19 29.77 1008 10 16 0.00 0.00
5:55 am 05:55 Clear 66 18.8 46 7.9 49 49 S 12 19 29.77 1008 10 16 0.00 0.00
6:15 am 06:15 Partly Cloudy 65 18.5 46 8 51 51 S 9 15 29.77 1008 10 16 0.00 0.00
6:35 am 06:35 Cloudy 66 18.8 47 8.2 50 50 S 8 13 29.77 1008 10 16 0.00 0.00
6:55 am 06:55 Mostly Cloudy 66 18.8 47 8.5 51 51 S 8 13 29.77 1008 10 16 0.00 0.00
7:15 am 07:15 Partly Cloudy 66 18.8 48 8.8 52 52 S 8 13 29.77 1008 10 16 0.00 0.00
7:35 am 07:35 Cloudy 66 18.8 48 9 53 53 SSW 10 17 29.80 1009 10 16 0.00 0.00
7:55 am 07:55 Cloudy 65 18.3 49 9.4 56 56 SW 7 11 29.80 1009 10 16 0.00 0.00
8:15 am 08:15 Cloudy 65 18.2 49 9.5 57 57 S 7 11 29.80 1009 10 16 0.00 0.00
8:35 am 08:35 Cloudy 65 18.4 49 9.5 56 56 S 8 13 29.80 1009 10 16 0.00 0.00
8:55 am 08:55 Cloudy 63 17.2 53 11.6 70 70 S 8 13 29.80 1009 10 16 0.00 0.00
9:15 am 09:15 Cloudy 64 17.7 54 12 69 69 S 6 9 29.80 1009 10 16 0.00 0.00
9:35 am 09:35 Cloudy 65 18.3 53 11.8 66 66 S 6 9 29.80 1009 10 16 0.00 0.00
9:55 am 09:55 Cloudy with Light Rain 65 18.4 55 12.5 69 69 Calm 29.80 1009 10 16 0.00 0.00
10:15 am 10:15 Cloudy 67 19.4 53 11.4 60 60 S 7 11 29.80 1009 10 16 0.00 0.00
10:35 am 10:35 Cloudy 68 19.8 53 11.5 59 59 S 9 15 29.80 1009 10 16 0.00 0.00
10:55 am 10:55 Cloudy 68 19.9 53 11.6 59 59 S 9 15 29.80 1009 10 16 0.00 0.00
11:15 am 11:15 Cloudy 67 19.7 53 11.6 60 60 S 8 13 29.80 1009 10 16 0.00 0.00
11:35 am 11:35 Cloudy with Rain 64 17.5 56 13.1 76 76 SW 7 11 29.83 1010 5 8 0.03 0.76
11:55 am 11:55 Cloudy with Light Rain 62 16.7 57 13.9 84 84 WSW 7 11 29.83 1010 10 16 0.08 2.03
12:15 pm 12:15 Cloudy 61 16 58 14.6 91 91 W 10 17 29.83 1010 10 16 0.01 0.25
12:35 pm 12:35 Cloudy with Drizzle 61 15.9 58 14.7 93 93 WSW 9 15 29.83 1010 4 6 0.01 0.25
12:55 pm 12:55 Cloudy with Light Rain 60 15.7 59 14.8 94 94 SW 8 13 29.83 1010 2 2 0.02 0.51
1:15 pm 13:15 Cloudy with Light Rain 60 15.7 59 14.9 95 95 SSW 5 7 29.83 1010 5 8 0.02 0.51
1:35 pm 13:35 Cloudy with Light Rain 61 16.1 59 15.2 94 94 S 5 7 29.83 1010 10 16 0.03 0.76
1:55 pm 13:55 Partly Cloudy 62 16.7 60 15.8 94 94 SSE 6 9 29.80 1009 10 16 0.03 0.76
2:15 pm 14:15 Sunny 64 17.7 60 15.7 88 88 SSE 10 17 29.80 1009 10 16 0.00 0.00
2:35 pm 14:35 Sunny 64 17.6 60 15.6 88 88 SE 14 22 29.77 1008 7 11 0.00 0.00
2:55 pm 14:55 Partly Cloudy 64 17.6 60 15.4 87 87 SSE 9 15 29.80 1009 10 16 0.00 0.00
3:15 pm 15:15 Cloudy 64 17.8 59 15.2 85 85 SSE 8 13 29.80 1009 10 16 0.00 0.00
3:35 pm 15:35 Partly Cloudy 65 18.3 59 15.1 82 82 S 10 17 29.80 1009 10 16 0.00 0.00
3:55 pm 15:55 Mostly Cloudy 65 18.4 59 14.9 80 80 S 10 17 29.80 1009 10 16 0.00 0.00
4:15 pm 16:15 Cloudy 65 18.4 59 15 81 81 S 10 17 29.80 1009 10 16 0.00 0.00
4:35 pm 16:35 Partly Cloudy 65 18.6 59 15 80 80 SSW 15 24 29.80 1009 10 16 0.00 0.00
4:55 pm 16:55 Mostly Cloudy 65 18.6 59 15.1 80 80 SSW 7 11 29.80 1009 10 16 0.00 0.00
5:15 pm 17:15 Cloudy with Light Rain 65 18.5 59 15 80 80 SE 10 17 29.74 1007 10 16 0.00 0.00
5:35 pm 17:35 Partly Cloudy 66 19 59 14.8 77 77 SSE 14 22 29.77 1008 10 16 0.00 0.00
5:55 pm 17:55 Partly Cloudy 66 19 58 14.7 76 76 S 12 19 29.77 1008 10 16 0.00 0.00
6:15 pm 18:15 Sunny 66 18.9 58 14.7 77 77 SSE 12 19 29.77 1008 10 16 0.00 0.00
6:35 pm 18:35 Sunny 66 18.9 58 14.6 76 76 S 12 19 29.77 1008 10 16 0.00 0.00
6:55 pm 18:55 Sunny 66 18.8 58 14.4 76 76 S 13 20 29.77 1008 10 16 0.00 0.00
7:15 pm 19:15 Sunny 65 18.6 58 14.4 77 77 S 9 15 29.80 1009 10 16 0.00 0.00
7:35 pm 19:35 Sunny 65 18.4 58 14.3 77 77 SSW 10 17 29.80 1009 10 16 0.00 0.00
7:55 pm 19:55 Sunny 64 18 58 14.2 79 79 WSW 5 7 29.80 1009 10 16 0.00 0.00
8:15 pm 20:15 Clear 64 17.6 58 14.2 81 81 S 6 9 29.83 1010 10 16 0.00 0.00
8:35 pm 20:35 Clear 64 17.6 58 14.4 82 82 Calm 29.83 1010 10 16 0.00 0.00
8:55 pm 20:55 Partly Cloudy 63 17.2 58 14.3 83 83 Calm 29.83 1010 10 16 0.00 0.00
9:15 pm 21:15 Cloudy 63 17.1 58 14.2 83 83 Calm 29.83 1010 10 16 0.00 0.00
9:35 pm 21:35 Cloudy 61 15.9 58 14.3 90 90 Calm 29.83 1010 10 16 0.00 0.00
9:55 pm 21:55 Cloudy 61 16.2 58 14.4 89 89 ENE 3 6 29.83 1010 10 16 0.00 0.00
10:15 pm 22:15 Cloudy with Light Rain 61 15.9 58 14.4 91 91 N 5 7 29.83 1010 10 16 0.00 0.00
10:35 pm 22:35 Cloudy 60 15.3 57 13.9 91 91 N 7 11 29.83 1010 10 16 0.00 0.00
10:55 pm 22:55 Cloudy with Light Rain 58 14.2 55 13 93 93 N 8 13 29.83 1010 10 16 0.00 0.00
11:15 pm 23:15 Cloudy with Rain 56 13.2 54 12 93 93 NNE 7 11 29.88 1012 5 8 0.02 0.51
11:35 pm 23:35 Cloudy with Light Rain 54 12.2 53 11.4 95 95 NNE 7 11 29.88 1012 5 8 0.04 1.02
11:55 pm 23:55 Cloudy with Light Rain 53 11.8 52 11.2 96 96 NNE 6 9 29.85 1011 4 6 0.07 1.78

Powered by AerisWeather